Showing default

OPS 9317 (IDSCS 7), 2221

Orbit data source: Space-Track

OPS 9317 (IDSCS 7), 2221 is a payload satellite owned by USAF SSD (US) in GEO that was launched on Thu, 16 Jun 1966 UTC via a TITAN IIIC launch vehicle from the Air Force Eastern Test Range (AFETR). Payload-class satellites include a variety of spacecraft equipped with specific instruments for various scientific and technological missions. These include communications satellites like Starlink; space stations such as the ISS; scientific satellites like the Hubble; Earth observation satellites from companies like Planet Labs, Umbra, and HawkEye 360; GPS; miniature CubeSats for education and research; and military/defense satellites.

Loading next visibility...
Identifier
2221, 1966-053H
Orbit
GEO
Country
Flag of USUS
Related business
Manufacturer
Philco-Ford WDL
Mission
Non-operational spacecraft
Bus & Motor
IDCSP, Unknown motor
Mass
45 kg wet, 45 kg dry
Launch date (UTC)
1966-06-16 (60 years ago)
Launch vehicle
TITAN IIIC
Launch site
Air Force Eastern Test Range (AFETR)
Object type
Payload
Rocket body
Debris
Shape & HBR
Unknown
Radar Cross Section
Medium (>0.1 m² and <1 m²)

Expand to show TLE details & history
Last TLE update: 2 days ago

TLE from 2 days ago
0 OPS 9317 (IDSCS 7)
1 02221U 66053H   26105.92910723 -.00000103  00000-0  00000-0 0  9999
2 02221   8.3169  47.5697 0080564 174.3115 185.7576  1.06869696 50363
Epoch: 2026-04-15T22:17Z
TLE epoch observation values (Epoch: 2026-04-15T22:17:54.864Z)
Latitude
-0.00001°
Longitude
-131.02612°
Altitude
34,357.428 km
Speed
3.116 km/s
True Right ascension
03h 10m 08s
True Declination
0° 00' 00"
Sunlit
Object was in daylight at epoch
Visualization orbit readout
Latitude
Unknown
Longitude
Unknown
Altitude
Unknown
Speed
Unknown
Apparent Right ascension
Unknown
Apparent Declination
Unknown
Sunlit
N/A
Visualization observer readout
Local Sidereal Time
17:06:32
Azimuth
Unknown
Elevation
Unknown
Doppler factor
Unknown
Orbital elements
Apogee altitude
34,359.444 km
Perigee altitude
33,708.293 km
Semi-major axis
40,412.006 km
Eccentricity
0.00806
Inclination
8.3169°
RAAN
47.5697°
Arg. of periapsis
174.3115°
True anomaly
185.6659°
Mean anomaly
185.7576°
Eccentric anomaly
185.71166°
Mean motion
0.26716 °/min
Orbital period
1,347.49 mins
BSTAR
0
Loading maneuver chart data...
Computing Atmospheric mass density...
Loading historical data...
Loading historical data...
Loading historical data...
Loading historical data...
Loading historical data...
Loading historical data...
Loading historical data...

Documentation

Showing up to 5 results
|